Regional Weather Roundup
Issued by NWS

Home | Current Version | Previous Version | Text Only | Print | Product List | Glossary On
Versions: 1 2 3 4 5 6 7 8 9 10 11 12 13 14 15 16 17 18 19 20 21 22 23 24 25 26 27 28 29 30 31 32 33 34 35 36 37 38 39 40 41 42 43 44 45 46 47 48
000
ASUS45 KREV 272210
RWRNV
NEVADA REGIONAL WEATHER ROUNDUP
NATIONAL WEATHER SERVICE RENO NV
300 PM PDT WED MAY 27 2015

NOTE: "FAIR" INDICATES FEW OR NO CLOUDS BELOW 12,000 FEET WITH NO
SIGNIFICANT WEATHER AND/OR OBSTRUCTIONS TO VISIBILITY.

NVZ001-003-004-272300-
WESTERN NEVADA

CITY           SKY/WX    TMP DP  RH WIND       PRES   REMARKS
RENO           MOSUNNY   78  34  20 VRB5      29.98F
CARSON CITY    FAIR      77  32  19 W16G23    30.01F
MINDEN           N/A     77  36  22 W14       30.01F
SLIDE MTN        N/A     54  34  47 W12         N/A
PYRAMID LAKE     N/A     72 N/A N/A NE6         N/A
FALLON         MOSUNNY   79  34  19 VRB5      29.96F
LOVELOCK       MOSUNNY   77  39  25 NE6       29.96F
HAWTHORNE      SUNNY     81  37  21 NW5       29.96F
$$

NVZ002-CAZ072-073-272300-
NORTHERN AND CENTRAL SIERRA

CITY           SKY/WX    TMP DP  RH WIND       PRES   REMARKS
S. LAKE TAHOE  PTSUNNY   70  37  29 S9        30.11S
TRUCKEE        MOSUNNY   70  36  28 W12G17    30.10S
SQUAW VLY 8000   N/A     59  36  41 SW6         N/A
SUSANVILLE     MOSUNNY   79  37  22 SW12      29.99F
BLUE CANYON    SUNNY     66  41  40 SW8       30.12F
MAMMOTH LAKES  FAIR      72  18  13 SW13G22   30.14S
BRIDGEPORT     FAIR      71  32  23 W15G24    30.10S
$$

NVZ030-031-036-272300-
NORTHERN NEVADA

CITY           SKY/WX    TMP DP  RH WIND       PRES   REMARKS
ELKO           PTSUNNY   71  41  33 N7        30.02S
WINNEMUCCA     SUNNY     74  42  31 SW10G17   29.99F
WENDOVER       CLOUDY    64  52  63 S15       29.99F
$$

NVZ035-037-272300-
CENTRAL NEVADA

CITY           SKY/WX    TMP DP  RH WIND       PRES   REMARKS
ELY            LGT RAIN  53  46  77 S8        30.16R
EUREKA           N/A     67  41  38 E6        30.03F
$$

NVZ013-014-272300-
SOUTH CENTRAL NEVADA

CITY           SKY/WX    TMP DP  RH WIND       PRES   REMARKS
TONOPAH        MOSUNNY   81  28  14 SW15G22   30.01F
$$

NVZ017-020-022-272300-
SOUTHERN NEVADA

CITY           SKY/WX    TMP DP  RH WIND       PRES   REMARKS
LAS VEGAS      MOSUNNY   91  32  12 S10G18    29.83F
N. LAS VEGAS   SUNNY     90  26  10 VRB5      29.86F
NELLIS AFB     SUNNY     90  33  13 VRB5      29.84F
HENDERSON      SUNNY     91  36  14 S8        29.90F
MERCURY        SUNNY     88  31  13 SW13G24   29.90F
$$



USA.gov is the U.S. government's official web portal to all federal, state and local government web resources and services.